sat.trackr.live / text

‹ back to catalog

STARLINK-32353

NORAD 61587 · 2024-187P

PAYLOAD ACTIVE UNKNOWN

§ Identity

Operator
Country
US
Launch date
2024-10-18
Launch site
AFETR
Launch vehicle
Mass (kg)
RCS (m²)

Purposes: comms

External: N2YO · Heavens-Above · Gunter

§ Orbital elements

Epoch: 2026-09-21T14:45:52.430688Z

Period
93.85 min
Inclination
53.1605°
Eccentricity
0.0001310
Mean motion
15.34399758 rev/d
Perigee alt
461.8 km
Apogee alt
463.6 km
Semi-major
6,840.8 km
B*
2.2285e-4
RAAN
230.5079°
Arg perigee
98.1657°
Mean anomaly
261.9494°
Rev number
10,908

§ Raw data

STARLINK-323531 61587U 24187P   26264.61519017  .00007160  00000+0  22285-3 0  99942 61587  53.1605 230.5079 0001310  98.1657 261.9494 15.34399758109083

JSON: /api/v1/satellites/61587 · /tle

For live sub-satellite position, see the globe view (requires WebGL).

§ Visibility from observer

Set your observer location to see the next 7 days of passes ≥ 10°. The values pass through the URL so the page stays shareable.

No JS? Fill the form by hand. The geolocation button needs JavaScript.